Flag for USA

Past Weather in Gooding, Idaho, USA — Yesterday and Last 2 Weeks

Now
23 °F

Clear.


Feels Like: 13 °F
Forecast: 38 / 12 °F
Wind: 9 mph from Southeast

Location: Jerome County Airport
Current Time: Oct 25, 2020 at 10:57:45 pm
Latest Report: Oct 25, 2020 at 9:53 pm
Visibility: 10 mi
Pressure30.39 "Hg(26.45 "Hg at 1089m altitude)
Humidity: 65%
Dew Point: 13 °F
Location of GoodingLocation

Past Weather in Gooding — Graph

°F

Gooding Temperature Yesterday

Maximum temperature yesterday: 56 °F (at 10:53 am)
Minimum temperature yesterday: 32 °F (at 11:53 pm)
Average temperature yesterday: 47 °F

High & Low Weather Summary for the Past Weeks

 TemperatureHumidityPressure
High69 °F (Oct 13, 2:53 pm)93% (Oct 10, 10:34 pm)30.49 "Hg (Oct 10, 10:34 pm)
Low23 °F (Oct 25, 3:53 am)18% (Oct 23, 3:53 pm)29.78 "Hg (Oct 10, 10:53 pm)
Average48 °F52%30.10 "Hg
* Reported Oct 10 8:53 pm — Oct 25 8:53 pm, Gooding. Weather by CustomWeather, © 2020

Note: Actual official high and low records may vary slightly from our data, if they occured in-between our weather recording intervals... More about our weather records

Gooding Weather History for the Previous 24 Hours

Scroll right to see more
 ConditionsComfort  
Time TempWeatherWind HumidityBarometerVisibility
8:53 pm
Sun, Oct 25
27 °FClear.No wind61%30.37 "Hg10 mi
7:53 pm27 °FClear.6 mph58%30.36 "Hg10 mi
6:53 pm26 °FSunny.6 mph55%30.34 "Hg10 mi
5:53 pm31 °FSunny.12 mph41%30.31 "Hg10 mi
4:53 pm33 °FSunny.15 mph35%30.28 "Hg10 mi
3:53 pm32 °FSunny.8 mph29%30.27 "Hg10 mi
2:53 pm32 °FOvercast.6 mph29%30.26 "Hg10 mi
1:53 pm30 °FPartly sunny.No wind30%30.25 "Hg10 mi
12:53 pm31 °FPartly sunny.10 mph29%30.25 "Hg10 mi
11:53 am30 °FBroken clouds.10 mph30%30.24 "Hg10 mi
10:53 am30 °FPartly sunny.12 mph33%30.23 "Hg10 mi
9:53 am27 °FPartly sunny.12 mph41%30.22 "Hg10 mi
8:53 am25 °FPartly cloudy.9 mph75%30.18 "Hg10 mi
7:53 am25 °FMostly cloudy.12 mph75%30.14 "Hg10 mi
7:13 am24 °FLight snow. Partly cloudy.12 mph75%30.06 "Hg9 mi
6:53 am25 °FOvercast.16 mph75%30.10 "Hg10 mi
5:53 am25 °FOvercast.7 mph75%30.09 "Hg10 mi
4:53 am25 °FOvercast.7 mph78%30.07 "Hg10 mi
4:34 am25 °FPassing clouds.5 mph78%30.03 "Hg10 mi
3:53 am23 °FClear.9 mph81%30.05 "Hg10 mi
2:53 am26 °FPassing clouds.9 mph74%30.04 "Hg10 mi
1:53 am28 °FPassing clouds.10 mph72%30.03 "Hg10 mi
12:53 am28 °FPassing clouds.6 mph72%30.02 "Hg10 mi
11:53 pm
Sat, Oct 24
32 °FPassing clouds.15 mph69%29.99 "Hg10 mi
10:53 pm34 °FClear.25 mph64%29.93 "Hg10 mi
Weather by CustomWeather, © 2020

See weather overview